Vorticity
12 11 11 11 11 11 10 10 10 11 12 11 11 12 12 11 11 10 10 11 12 13 13 14 14 14 14 14 13 13 13 13 13 14 15 16 16 17 17 16 16 16 15 15 15 15 15 15 15 14 14 14 14 14 14 14 15 15 15 15 15 15 15 15 15 16 16 17 17 17 17 13 10 10 14 14 12 10 9 9 10 10 9 9 9 9
12 11 11 10 10 11 11 10 10 10 12 12 12 13 13 13 12 12 12 12 13 13 14 14 15 15 15 14 14 13 13 13 14 15 15 16 17 18 18 18 18 18 18 18 18 18 17 17 17 16 15 15 15 14 14 14 14 15 15 15 15 15 15 15 16 16 17 17 18 17 17 13 11 11 13 14 11 8 6 7 8 10 10 10 10 10
12 11 10 10 10 11 11 11 11 11 11 13 13 14 13 13 13 13 14 14 14 14 15 15 15 16 16 15 15 14 14 14 15 15 16 17 17 18 18 19 19 19 20 20 20 20 20 20 19 19 18 17 16 16 15 15 14 14 15 15 15 15 15 16 16 17 18 19 18 18 16 13 11 10 12 14 12 8 3 3 4 7 10 11 11 12
12 11 11 11 11 11 11 12 12 12 12 13 14 14 14 14 14 15 15 15 16 16 17 17 17 18 17 17 16 16 16 16 16 16 16 16 16 16 17 17 17 18 18 19 19 20 20 21 21 20 20 19 19 18 17 16 15 14 14 15 15 15 15 16 17 18 19 20 19 18 16 14 11 8 12 14 14 11 6 1 1 2 6 10 12 13
12 12 12 11 11 11 12 12 13 14 15 15 15 15 15 16 17 18 18 19 19 20 20 20 20 20 19 18 18 18 18 17 16 15 15 14 14 14 14 14 14 14 15 16 17 18 19 19 20 20 20 20 20 19 18 17 16 15 14 14 15 15 15 16 17 18 20 21 21 19 18 16 13 10 11 13 14 14 10 5 2 1 2 6 9 13
12 12 12 12 12 13 13 14 15 16 17 18 18 18 18 19 20 21 22 22 22 22 22 22 21 21 20 19 19 18 17 16 14 13 12 11 11 10 10 11 11 12 13 13 14 15 16 17 17 18 19 19 19 19 19 18 17 16 15 14 14 14 15 16 17 18 20 22 22 21 19 17 15 13 11 11 13 14 14 10 7 4 2 3 7 13
12 13 13 13 14 15 15 16 17 18 19 20 20 20 20 21 22 22 22 22 22 21 21 21 20 20 19 17 16 14 13 11 10 9 8 8 7 7 8 8 9 10 11 11 12 12 13 13 14 15 16 17 18 19 19 18 17 16 15 14 14 14 14 15 17 18 20 22 23 22 20 18 16 15 13 11 11 12 14 12 11 9 6 5 8 14
14 14 14 15 17 19 19 18 18 19 20 21 21 20 19 19 19 19 19 18 18 17 17 17 16 14 12 11 10 8 7 7 6 6 6 6 6 6 7 7 7 8 8 9 9 10 10 10 11 12 13 15 16 17 18 18 18 17 16 15 14 13 14 15 16 18 21 23 24 23 21 18 16 14 13 11 10 10 11 12 12 11 10 8 9 12
16 17 18 18 19 20 20 20 19 19 18 18 18 18 18 17 16 15 15 14 12 11 11 11 10 9 7 6 5 5 5 6 6 6 7 7 7 7 7 7 7 7 7 7 7 7 7 8 9 10 11 12 14 15 17 18 19 18 18 17 15 14 13 14 15 17 20 23 24 24 21 18 15 13 12 10 10 10 10 10 11 11 11 9 7 5
19 20 21 20 20 19 18 19 18 16 14 14 14 14 15 16 16 15 13 10 8 6 6 7 8 8 7 5 4 5 6 7 7 7 8 8 9 9 10 9 9 8 7 7 6 6 7 8 9 10 10 11 12 14 15 17 18 19 19 19 17 16 14 14 15 17 20 23 25 25 23 19 15 13 12 10 10 11 12 11 11 11 11 11 6 -0
22 21 20 18 17 16 15 15 14 12 11 11 11 11 11 12 13 13 12 10 7 5 4 5 6 8 9 7 6 6 8 9 9 9 9 10 11 12 13 12 12 11 10 10 9 9 9 10 11 11 12 12 12 13 14 16 17 19 20 20 20 19 17 16 16 18 20 24 26 27 25 21 17 14 12 11 9 10 15 13 11 11 12 13 10 3
18 17 16 16 15 13 11 8 7 6 6 7 9 11 12 10 9 8 11 12 10 8 6 6 6 6 8 9 9 9 9 9 10 11 11 11 12 13 14 14 15 14 14 14 13 13 14 14 14 14 13 13 13 13 14 15 17 18 20 21 21 21 20 19 18 18 21 25 28 30 29 25 20 16 14 13 11 10 13 13 12 11 12 15 17 14
14 13 12 12 10 8 5 3 2 2 2 5 9 13 15 13 9 6 7 10 9 8 8 9 8 7 6 7 8 9 9 10 10 11 12 12 13 14 15 16 16 16 16 16 16 16 16 16 16 15 14 13 13 13 14 15 17 18 19 21 22 23 23 22 21 20 20 25 29 32 33 29 23 17 15 15 13 11 10 13 13 12 11 13 18 22
10 8 7 5 2 -1 -2 -1 1 2 4 7 10 12 14 12 9 6 5 5 4 3 4 7 9 9 8 6 6 7 9 11 12 13 13 14 15 16 17 17 17 17 16 16 16 16 16 16 15 14 12 12 12 13 14 16 17 18 20 21 23 24 25 25 24 22 22 24 28 32 34 31 25 19 16 14 12 10 9 12 14 14 13 12 14 19
5 4 1 -2 -3 -2 0 2 4 6 7 9 10 11 10 7 3 2 2 2 2 2 2 4 5 7 7 8 8 9 10 12 14 15 16 16 16 16 18 18 18 17 15 15 15 15 14 13 13 12 12 12 13 14 15 17 18 19 21 22 24 25 26 27 26 25 24 24 27 31 34 31 26 20 17 14 10 7 7 11 13 14 14 13 13 15
1 -1 -4 -5 -1 4 8 6 7 8 10 10 9 7 5 2 1 1 2 2 3 4 4 5 7 8 6 8 9 10 12 13 14 15 17 18 17 16 16 17 17 15 13 13 12 12 11 11 11 12 13 14 15 17 18 19 20 21 21 22 24 26 27 28 28 27 26 26 28 30 32 30 25 20 18 16 10 6 6 9 10 10 11 12 13 15
0 -2 -3 5 11 13 10 8 8 10 11 10 7 3 1 1 2 3 3 5 5 6 7 9 11 13 15 12 9 9 12 13 14 15 17 16 16 15 13 14 13 12 11 10 10 10 10 10 11 13 15 17 19 20 22 22 21 20 20 21 23 25 27 28 28 28 27 27 28 29 30 27 23 19 18 17 12 7 4 7 8 7 6 7 9 12
4 4 7 11 12 11 8 9 10 10 9 6 4 3 3 4 5 6 7 9 11 12 12 13 14 15 16 14 14 14 13 12 14 16 16 14 14 13 11 11 11 11 11 11 12 12 13 13 14 16 17 19 22 23 24 22 20 19 18 19 20 23 25 27 28 28 28 28 28 28 27 24 20 17 17 16 14 10 4 7 7 5 2 3 6 9
8 8 9 9 9 9 9 10 10 8 6 5 5 6 8 10 12 13 14 15 15 15 15 15 15 14 14 13 15 16 13 12 13 14 15 13 12 12 11 12 12 14 15 16 16 17 17 18 18 20 21 23 24 25 24 21 18 16 14 15 17 19 22 24 26 27 27 28 27 27 25 21 17 15 15 14 14 11 5 12 13 9 2 -0 1 3
8 8 7 8 9 10 10 10 9 8 7 8 9 11 14 16 18 18 17 15 14 14 15 15 15 15 15 16 15 14 13 13 13 12 11 11 12 14 15 15 16 18 18 19 20 20 20 21 21 23 24 26 26 25 23 19 16 13 12 13 15 17 19 21 23 25 26 26 25 24 21 18 16 14 14 13 12 11 7 11 17 20 17 9 2 -4
10 9 8 9 10 10 10 10 11 12 13 14 15 17 18 18 17 15 13 12 11 12 13 14 15 17 17 16 16 15 14 14 13 13 13 13 13 15 18 17 18 19 19 21 21 21 21 22 23 24 26 27 27 25 21 18 14 12 11 12 14 16 18 20 21 22 24 23 22 20 17 15 14 13 13 13 13 12 9 8 13 20 25 25 21 13
12 12 12 11 12 13 14 16 18 19 19 18 18 17 15 13 11 9 8 9 10 11 12 14 15 15 16 17 17 18 17 16 15 14 14 13 13 14 16 16 17 18 20 21 21 20 19 19 21 24 26 27 26 23 20 16 13 11 10 12 14 16 18 19 20 21 21 21 20 17 15 13 13 13 13 14 14 14 11 8 9 12 17 21 24 25
9 11 12 12 13 16 18 19 20 19 18 16 14 11 7 5 4 4 5 7 8 10 11 12 13 14 16 17 18 18 16 16 15 14 13 11 11 12 13 14 16 18 20 21 19 17 16 16 18 21 24 25 24 22 18 15 13 11 10 11 14 16 19 20 21 21 20 19 18 16 13 12 12 13 14 17 19 19 14 7 6 9 12 11 11 12
7 9 10 10 10 11 12 14 14 14 13 11 9 6 2 1 1 3 5 6 7 8 9 11 13 15 16 16 16 15 15 14 13 12 11 9 9 10 12 14 16 18 19 18 16 15 14 15 16 19 22 23 22 21 18 15 13 12 11 12 14 16 19 21 22 22 21 19 17 15 13 13 13 15 17 22 26 24 15 6 4 6 10 9 7 6
8 9 10 11 11 11 12 13 14 14 13 11 9 7 5 4 4 5 6 7 8 9 10 11 11 12 12 12 11 11 11 10 9 9 9 9 9 11 12 15 16 17 18 16 14 13 13 14 15 18 20 21 21 20 18 16 15 14 13 13 14 16 18 21 23 24 24 21 18 16 14 13 14 16 20 27 31 28 15 4 0 1 4 6 7 8
12 12 13 12 12 12 12 14 16 17 17 15 14 13 11 10 9 9 9 9 9 9 9 9 9 9 9 9 8 7 7 8 8 9 10 11 12 12 12 14 16 18 18 16 14 13 13 13 15 17 19 21 22 21 20 19 17 16 15 15 15 16 17 20 23 25 26 24 21 18 15 14 14 17 21 30 34 30 16 3 -2 -2 -2 1 4 8
14 14 13 11 9 9 10 13 16 19 21 18 17 16 15 14 13 12 11 10 9 8 8 8 8 8 10 9 8 8 9 10 10 10 10 12 11 10 10 13 16 19 20 17 14 13 12 12 13 15 18 21 23 23 22 21 20 19 18 17 16 16 17 19 22 25 28 27 25 21 17 15 14 16 20 29 34 32 20 6 -1 -4 -6 -5 -1 4
11 12 12 10 9 8 9 12 16 20 22 22 21 19 17 17 16 14 12 10 9 9 9 10 10 10 10 10 10 10 11 10 9 9 9 10 9 8 10 14 18 21 22 20 16 13 11 11 12 14 17 20 23 24 24 23 22 21 20 19 18 17 17 19 21 25 28 29 28 25 21 17 14 14 17 25 32 33 25 11 2 -3 -7 -9 -5 1
5 6 8 10 11 12 12 15 17 19 19 18 19 20 20 20 19 17 12 11 11 11 11 12 13 12 11 10 10 10 9 8 8 9 11 10 8 7 11 15 19 22 23 21 18 14 11 11 11 12 15 18 20 22 23 23 23 22 21 20 19 18 18 19 21 23 27 29 30 29 26 21 17 15 15 21 28 33 30 17 7 -1 -7 -9 -5 1
-1 0 4 8 11 13 15 18 20 19 15 11 11 13 16 18 18 17 13 12 12 12 11 11 11 10 9 8 8 9 8 9 10 12 13 11 10 10 13 16 20 23 23 20 17 15 14 13 12 11 12 14 16 18 19 20 21 21 21 20 19 18 18 18 20 22 25 28 31 32 31 28 24 20 18 20 26 32 34 23 13 4 -4 -5 -1 4
-4 -2 3 8 11 13 16 19 22 21 15 9 6 7 10 12 13 13 11 9 8 7 7 7 6 6 5 6 6 7 9 12 14 14 14 12 11 12 14 16 19 21 21 17 16 15 16 15 14 12 12 12 13 14 15 16 17 18 19 19 18 18 17 18 19 20 23 26 29 32 34 33 31 28 25 24 27 32 36 28 18 8 1 1 4 8
-2 1 6 9 11 12 14 18 22 24 20 12 7 6 7 9 10 10 9 8 6 5 5 4 4 4 4 5 6 7 10 14 15 15 14 13 12 12 13 14 17 19 21 18 17 16 16 16 15 15 14 13 12 11 11 12 13 15 16 17 17 17 16 16 17 18 20 23 27 30 33 35 35 34 32 30 31 33 36 30 21 11 5 4 7 10
4 7 11 12 12 12 13 18 23 26 24 17 11 8 7 9 9 10 9 8 8 7 6 5 4 4 4 5 6 8 11 14 15 15 13 13 13 13 13 13 15 17 19 20 19 19 18 17 16 15 15 13 12 11 10 9 10 11 13 14 15 15 15 15 15 16 17 20 23 27 31 35 37 37 36 35 34 35 37 30 21 12 5 5 7 11
9 13 16 15 14 13 13 17 22 25 25 19 15 12 10 10 10 9 9 8 7 7 6 4 4 4 5 6 7 9 11 13 14 14 12 12 13 13 13 13 14 15 16 18 19 19 20 20 18 15 14 13 13 12 10 9 8 9 10 11 12 13 14 14 14 14 15 16 19 22 27 31 35 37 38 38 38 38 37 30 20 10 3 1 3 6
11 15 18 16 14 13 13 17 21 23 24 21 18 16 14 12 10 8 7 7 6 6 5 4 3 4 5 7 9 11 11 13 13 12 12 12 12 12 13 13 13 14 14 15 16 17 18 19 19 17 15 14 13 13 11 10 9 9 9 9 10 11 12 12 12 13 13 13 15 17 20 25 29 34 37 39 40 40 38 31 20 10 1 -4 -5 -4
13 16 18 16 13 12 12 15 18 21 22 21 20 18 16 13 10 9 8 8 7 6 5 4 4 4 5 7 9 10 11 12 12 12 11 11 11 11 11 11 12 13 14 14 14 14 15 16 17 17 17 16 15 13 12 11 10 9 8 8 9 9 10 11 11 12 12 12 12 13 15 18 22 27 32 36 40 43 42 34 24 13 4 -3 -7 -10
16 17 18 15 13 11 11 13 15 17 18 18 18 17 16 14 13 11 11 10 8 7 6 5 5 6 7 8 9 11 13 13 12 11 10 9 9 9 9 9 10 11 13 14 14 14 13 13 14 15 16 17 17 15 13 12 11 10 9 9 8 9 9 10 11 11 11 11 11 11 12 13 16 19 24 29 35 41 45 40 31 20 11 5 -0 -3
18 18 18 15 13 11 10 11 12 14 15 16 17 17 18 17 16 15 14 13 11 9 8 8 8 8 9 9 9 10 11 11 11 10 9 9 8 8 8 8 8 9 10 11 12 13 14 14 14 15 15 16 16 16 14 13 13 12 12 10 9 9 9 9 10 11 11 11 11 11 11 11 12 14 16 20 26 32 40 41 37 29 20 14 8 4
18 18 18 15 13 11 10 10 11 12 12 13 14 15 18 19 19 20 19 18 16 15 14 12 11 10 9 9 9 8 8 9 9 9 9 8 8 8 8 7 7 7 8 8 10 11 13 14 15 16 16 16 16 15 14 14 13 13 13 12 12 12 11 10 9 10 11 11 11 11 11 11 11 12 12 14 18 23 30 36 38 36 29 22 15 8
17 17 17 15 13 11 9 10 10 11 11 10 11 11 13 16 19 20 21 21 20 19 17 15 13 12 11 10 10 10 10 9 9 9 8 8 8 8 9 8 8 7 7 7 8 9 10 11 13 15 16 17 16 15 14 14 14 13 13 13 14 14 12 11 11 11 11 12 12 12 12 12 12 12 12 12 14 16 20 27 33 37 38 35 30 23
15 16 16 15 13 11 10 10 11 11 11 10 9 9 10 12 14 16 16 16 16 16 15 14 12 11 11 11 11 11 11 10 9 8 8 8 8 8 8 9 8 8 7 8 8 8 8 9 10 12 14 15 16 16 16 16 15 14 13 14 15 14 11 11 11 12 12 13 13 14 13 13 13 13 13 12 13 13 14 18 23 28 32 35 35 31
15 15 15 14 13 11 10 10 11 11 11 10 9 8 9 9 10 11 11 11 12 12 12 12 12 11 10 10 11 11 11 10 9 8 7 7 7 7 8 8 8 8 8 8 8 9 9 9 9 10 11 12 13 14 15 15 15 15 16 16 15 14 15 16 15 13 12 12 13 13 14 15 15 14 14 13 13 12 12 13 16 18 19 22 23 21
16 16 16 14 13 11 10 10 10 10 11 10 9 8 7 7 7 7 9 10 10 11 11 11 11 10 9 8 9 9 10 10 9 8 8 8 8 8 8 8 7 7 7 7 8 9 9 9 10 10 10 11 11 12 13 13 14 15 16 16 15 15 17 18 16 14 13 13 13 13 14 15 15 15 14 14 13 13 12 12 12 13 14 14 13 13
20 20 20 18 16 14 11 9 8 9 9 9 7 6 4 4 4 5 7 9 10 10 10 11 11 10 9 8 7 7 8 8 9 9 10 10 9 9 8 8 7 7 7 7 8 8 8 10 11 11 10 10 11 12 13 13 14 14 15 15 15 16 17 14 11 10 12 13 13 14 14 14 14 14 14 14 14 13 13 12 12 13 13 13 13 13
21 22 23 23 21 19 15 11 9 7 6 5 5 4 3 4 5 7 8 9 10 10 9 10 9 9 9 8 7 6 6 6 7 9 10 10 10 10 9 8 8 7 8 8 9 8 8 9 10 11 11 10 11 11 12 13 14 14 14 14 15 16 17 16 15 14 14 13 14 14 13 13 13 13 13 14 14 13 13 13 13 13 13 13 13 14
18 19 20 21 21 20 18 15 12 10 8 6 5 5 4 5 7 9 11 11 11 10 10 9 8 8 8 7 7 6 6 6 7 7 8 9 10 10 10 10 9 8 8 8 9 10 11 10 10 10 10 11 12 12 12 13 13 14 14 14 14 14 14 15 17 18 18 17 16 15 12 12 13 14 14 13 13 12 11 12 13 13 13 13 13 13
16 17 17 18 19 19 18 17 16 14 12 10 8 7 7 8 10 12 13 13 12 11 11 10 7 6 6 7 7 7 7 7 7 7 7 8 10 11 11 11 10 10 9 9 9 10 12 12 12 11 11 11 12 12 12 13 13 13 13 14 14 14 14 14 15 17 19 20 19 16 11 11 13 15 15 14 13 12 10 11 12 12 12 12 12 12
14 15 16 16 17 17 17 17 16 15 14 13 12 11 11 12 14 15 15 13 12 11 11 9 7 5 5 6 7 8 8 7 7 7 8 8 9 10 11 11 10 10 9 10 10 11 12 13 13 13 12 12 12 13 13 13 13 13 13 14 14 14 14 15 16 17 18 21 21 19 13 12 12 13 11 12 13 13 10 10 10 10 10 10 10 10
12 12 13 14 14 15 15 16 15 15 15 14 14 14 13 14 14 14 12 11 10 8 7 7 7 6 7 8 8 8 8 8 8 8 8 8 9 9 10 10 10 9 9 10 11 12 12 13 14 14 14 14 14 13 13 13 13 12 12 13 13 14 15 17 17 18 18 20 21 21 18 17 15 12 9 10 11 11 10 10 8 8 9 9 9 9
8 9 10 10 11 12 13 13 13 13 13 13 13 13 12 12 11 9 7 6 6 5 5 7 8 9 10 10 9 9 8 8 8 8 8 8 8 8 8 9 9 9 9 9 10 10 10 11 13 15 17 17 16 15 14 13 13 12 12 12 13 14 15 16 18 18 18 19 20 21 21 20 18 15 12 13 11 9 8 10 9 8 8 8 9 9
7 7 7 7 8 9 9 10 10 10 10 10 10 10 10 9 8 6 5 4 4 5 7 8 9 10 11 10 9 8 7 7 7 8 8 8 8 8 8 9 9 9 8 8 8 9 9 8 9 12 17 20 20 18 16 14 13 12 12 12 13 13 14 15 17 18 19 19 19 20 21 21 20 17 15 14 12 10 8 9 9 9 8 8 8 9
Height
2945 2943 2943 2943 2941 2940 2938 2939 2939 2938 2936 2936 2936 2935 2935 2934 2933 2933 2933 2932 2932 2931 2930 2929 2929 2928 2927 2927 2927 2927 2927 2927 2927 2927 2927 2926 2926 2926 2925 2925 2924 2924 2923 2923 2923 2923 2922 2922 2922 2922 2922 2922 2922 2922 2922 2923 2924 2925 2925 2926 2927 2928 2929 2930 2931 2932 2933 2935 2936 2939 2941 2943 2946 2948 2950 2951 2954 2956 2958 2959 2960 2961 2962 2964 2966 2968
2941 2939 2938 2938 2937 2935 2934 2934 2935 2934 2932 2931 2931 2931 2931 2930 2929 2929 2928 2928 2927 2927 2926 2926 2925 2924 2924 2923 2923 2923 2923 2923 2923 2922 2922 2922 2922 2922 2921 2921 2920 2920 2919 2919 2919 2918 2918 2918 2918 2917 2917 2917 2917 2917 2918 2918 2919 2919 2920 2921 2921 2922 2923 2924 2926 2927 2928 2930 2931 2933 2936 2938 2941 2943 2945 2947 2949 2951 2953 2955 2956 2956 2958 2960 2961 2963
2936 2935 2933 2933 2933 2931 2930 2930 2930 2930 2929 2928 2927 2927 2927 2926 2925 2925 2924 2924 2923 2923 2922 2922 2921 2921 2920 2920 2920 2920 2919 2919 2919 2919 2918 2918 2918 2918 2917 2917 2916 2916 2915 2915 2915 2914 2914 2914 2913 2913 2913 2913 2913 2913 2913 2913 2914 2914 2915 2916 2916 2917 2918 2919 2920 2921 2923 2925 2926 2928 2931 2933 2936 2938 2941 2942 2944 2946 2948 2950 2951 2952 2954 2955 2957 2958
2932 2930 2929 2929 2928 2927 2926 2926 2926 2925 2925 2925 2924 2924 2923 2922 2922 2921 2921 2920 2920 2919 2919 2919 2918 2917 2917 2916 2916 2916 2916 2916 2915 2915 2915 2914 2914 2914 2913 2913 2912 2912 2912 2911 2911 2910 2910 2910 2909 2909 2909 2908 2908 2908 2908 2908 2909 2909 2910 2910 2911 2912 2913 2914 2915 2916 2918 2919 2921 2923 2925 2928 2931 2933 2936 2937 2939 2941 2943 2945 2946 2948 2950 2951 2953 2954
2928 2926 2925 2924 2923 2922 2922 2922 2922 2921 2921 2921 2920 2920 2919 2919 2918 2917 2917 2916 2916 2916 2915 2915 2915 2914 2914 2913 2913 2913 2912 2912 2911 2911 2911 2910 2910 2910 2909 2909 2909 2908 2908 2907 2907 2906 2906 2906 2905 2905 2905 2904 2904 2904 2904 2904 2904 2904 2904 2905 2906 2906 2908 2909 2910 2911 2913 2914 2916 2918 2920 2922 2925 2927 2931 2932 2934 2936 2938 2940 2942 2944 2945 2947 2949 2950
2924 2923 2921 2920 2919 2918 2918 2918 2918 2918 2917 2916 2916 2916 2916 2915 2914 2914 2913 2913 2913 2912 2912 2912 2912 2911 2911 2910 2910 2910 2909 2909 2908 2907 2907 2906 2906 2906 2905 2905 2905 2904 2904 2904 2903 2903 2902 2902 2901 2901 2901 2900 2900 2900 2900 2899 2899 2899 2900 2900 2901 2901 2902 2904 2905 2906 2908 2909 2911 2913 2915 2917 2919 2922 2925 2927 2930 2931 2934 2936 2938 2939 2941 2943 2945 2946
2919 2919 2918 2916 2915 2915 2915 2914 2914 2914 2913 2913 2912 2912 2912 2911 2911 2910 2910 2910 2909 2909 2909 2908 2908 2908 2908 2907 2907 2906 2906 2905 2905 2904 2904 2903 2903 2902 2902 2901 2901 2901 2900 2900 2899 2899 2898 2898 2898 2897 2897 2896 2896 2896 2896 2895 2895 2895 2895 2895 2896 2896 2897 2898 2900 2901 2902 2904 2906 2908 2910 2912 2915 2917 2920 2922 2925 2927 2929 2931 2933 2935 2937 2939 2941 2942
2915 2914 2914 2913 2912 2911 2911 2910 2911 2911 2910 2910 2909 2908 2908 2907 2907 2906 2906 2906 2906 2906 2905 2905 2904 2904 2904 2904 2904 2903 2902 2902 2901 2901 2901 2900 2900 2899 2899 2898 2898 2897 2897 2896 2896 2895 2895 2894 2894 2894 2893 2893 2892 2892 2891 2891 2891 2891 2891 2891 2891 2891 2892 2893 2895 2896 2897 2899 2901 2903 2905 2908 2911 2913 2915 2917 2920 2922 2925 2927 2929 2931 2933 2935 2937 2939
2911 2910 2910 2910 2909 2908 2907 2906 2907 2908 2908 2906 2906 2905 2904 2903 2903 2903 2903 2902 2902 2902 2901 2901 2900 2900 2901 2901 2900 2900 2899 2899 2898 2898 2897 2897 2897 2896 2896 2895 2895 2894 2893 2893 2892 2892 2891 2891 2891 2890 2890 2889 2889 2888 2888 2887 2887 2886 2886 2886 2886 2886 2887 2888 2890 2891 2892 2894 2896 2898 2900 2903 2906 2908 2911 2913 2915 2917 2920 2922 2925 2927 2929 2931 2933 2935
2907 2907 2906 2906 2906 2905 2904 2903 2904 2905 2905 2904 2903 2902 2901 2901 2900 2900 2899 2899 2898 2898 2898 2897 2896 2896 2896 2896 2896 2896 2896 2895 2895 2895 2894 2894 2894 2893 2892 2892 2891 2891 2890 2890 2889 2888 2888 2887 2887 2887 2886 2886 2885 2885 2884 2883 2883 2882 2882 2882 2882 2882 2882 2883 2885 2886 2888 2890 2891 2893 2895 2898 2900 2903 2906 2908 2910 2912 2915 2917 2920 2923 2925 2927 2929 2931
2904 2904 2903 2902 2902 2902 2901 2901 2901 2901 2901 2901 2900 2899 2899 2899 2898 2897 2896 2895 2895 2895 2894 2893 2892 2892 2891 2892 2892 2892 2892 2891 2891 2891 2891 2891 2891 2890 2889 2888 2888 2887 2886 2886 2885 2885 2884 2884 2884 2883 2883 2882 2881 2881 2880 2879 2879 2878 2878 2878 2877 2878 2878 2879 2880 2881 2883 2885 2887 2889 2891 2893 2896 2898 2901 2903 2906 2908 2910 2912 2915 2918 2920 2922 2924 2926
2901 2901 2900 2900 2899 2899 2898 2898 2898 2897 2897 2897 2896 2896 2896 2896 2896 2895 2893 2891 2891 2891 2891 2890 2889 2888 2888 2887 2888 2888 2888 2887 2887 2887 2887 2887 2887 2886 2886 2885 2884 2883 2882 2881 2881 2881 2881 2880 2880 2879 2879 2878 2877 2876 2876 2875 2875 2874 2874 2873 2873 2873 2874 2874 2875 2877 2879 2881 2883 2885 2886 2889 2891 2894 2896 2899 2901 2903 2905 2907 2910 2912 2915 2917 2920 2921
2899 2898 2898 2897 2896 2896 2895 2895 2895 2895 2894 2894 2894 2893 2893 2893 2893 2891 2890 2888 2887 2887 2887 2886 2885 2885 2885 2884 2884 2884 2883 2883 2882 2882 2882 2882 2883 2883 2882 2881 2880 2879 2878 2878 2877 2877 2877 2876 2876 2875 2875 2874 2873 2872 2871 2871 2870 2870 2869 2869 2869 2869 2869 2870 2871 2872 2874 2876 2879 2881 2882 2884 2887 2890 2892 2894 2896 2898 2901 2902 2905 2907 2910 2912 2915 2916
2896 2896 2895 2894 2893 2893 2892 2892 2892 2891 2891 2891 2891 2890 2890 2889 2889 2888 2886 2885 2884 2884 2883 2882 2881 2881 2881 2881 2881 2880 2879 2879 2878 2877 2877 2878 2878 2878 2878 2876 2876 2875 2875 2874 2873 2873 2873 2873 2872 2871 2871 2870 2869 2868 2867 2866 2866 2865 2865 2864 2865 2865 2865 2866 2867 2868 2870 2872 2874 2876 2878 2880 2882 2885 2887 2890 2892 2894 2896 2899 2901 2903 2906 2908 2910 2912
2894 2893 2892 2891 2890 2890 2890 2890 2889 2888 2888 2888 2888 2887 2886 2886 2885 2884 2883 2881 2881 2880 2879 2878 2876 2876 2876 2876 2876 2876 2876 2875 2874 2873 2872 2873 2873 2874 2873 2872 2871 2871 2871 2870 2870 2870 2870 2869 2868 2867 2866 2866 2865 2864 2863 2862 2861 2861 2860 2860 2860 2860 2861 2861 2862 2864 2865 2867 2869 2871 2873 2876 2878 2881 2883 2885 2888 2890 2893 2895 2897 2899 2901 2903 2906 2908
2891 2891 2890 2888 2888 2887 2888 2888 2887 2886 2886 2885 2885 2884 2883 2882 2881 2881 2880 2878 2877 2877 2876 2874 2872 2871 2871 2871 2872 2872 2872 2871 2870 2869 2868 2868 2869 2870 2870 2868 2867 2867 2867 2867 2866 2866 2866 2865 2864 2863 2862 2861 2861 2860 2859 2858 2857 2856 2856 2856 2856 2856 2856 2857 2858 2859 2861 2862 2864 2866 2869 2871 2874 2876 2878 2881 2884 2886 2889 2891 2894 2896 2898 2900 2901 2903
2889 2888 2887 2887 2886 2885 2885 2885 2885 2884 2883 2883 2882 2881 2881 2880 2879 2878 2877 2876 2875 2874 2873 2871 2870 2868 2867 2866 2867 2868 2868 2867 2866 2865 2864 2864 2865 2866 2866 2865 2864 2863 2863 2863 2863 2862 2862 2861 2860 2859 2858 2857 2857 2856 2855 2854 2853 2852 2852 2852 2852 2852 2852 2853 2854 2855 2856 2858 2860 2862 2865 2867 2870 2872 2874 2877 2879 2882 2886 2888 2890 2892 2895 2897 2898 2900
2886 2886 2885 2884 2883 2882 2883 2883 2883 2882 2881 2880 2879 2879 2878 2877 2876 2875 2874 2873 2872 2871 2870 2869 2867 2866 2865 2864 2864 2865 2864 2863 2862 2861 2861 2860 2861 2862 2862 2861 2860 2859 2859 2859 2859 2858 2857 2856 2856 2855 2854 2853 2852 2851 2851 2850 2849 2849 2848 2848 2848 2848 2849 2849 2850 2851 2852 2854 2856 2858 2861 2863 2866 2868 2870 2872 2875 2878 2881 2884 2886 2888 2890 2893 2895 2896
2883 2883 2882 2881 2880 2880 2880 2880 2880 2879 2879 2878 2877 2876 2875 2874 2874 2873 2871 2871 2870 2869 2868 2866 2865 2864 2863 2862 2862 2862 2862 2861 2859 2858 2857 2857 2857 2859 2859 2858 2857 2856 2855 2855 2855 2854 2853 2852 2851 2850 2850 2849 2848 2847 2847 2846 2846 2845 2845 2845 2845 2845 2845 2846 2846 2847 2849 2850 2852 2854 2856 2859 2861 2864 2866 2868 2870 2873 2876 2879 2881 2883 2885 2888 2890 2892
2881 2881 2880 2879 2878 2878 2877 2877 2877 2877 2876 2876 2875 2874 2873 2872 2871 2870 2869 2868 2867 2866 2865 2864 2863 2861 2861 2860 2860 2860 2860 2858 2857 2856 2855 2854 2854 2855 2855 2855 2853 2852 2851 2851 2851 2851 2850 2848 2847 2846 2846 2845 2844 2844 2843 2843 2842 2842 2842 2841 2841 2841 2842 2842 2843 2844 2845 2847 2848 2851 2852 2855 2857 2859 2861 2863 2866 2868 2871 2874 2877 2879 2881 2883 2885 2887
2880 2879 2878 2878 2878 2876 2875 2874 2874 2875 2874 2874 2873 2872 2871 2870 2869 2868 2867 2866 2865 2864 2863 2861 2860 2860 2859 2858 2858 2857 2857 2856 2855 2854 2852 2851 2851 2851 2851 2851 2850 2849 2848 2848 2848 2847 2846 2845 2844 2843 2842 2842 2841 2841 2840 2840 2839 2839 2839 2839 2838 2838 2839 2839 2840 2841 2842 2843 2845 2847 2849 2851 2853 2855 2857 2859 2861 2864 2867 2870 2873 2876 2877 2879 2881 2883
2878 2877 2877 2877 2876 2875 2873 2872 2872 2872 2872 2871 2871 2869 2868 2868 2867 2866 2865 2864 2863 2862 2861 2859 2858 2858 2857 2856 2856 2855 2855 2854 2853 2852 2851 2849 2847 2847 2849 2848 2847 2846 2845 2845 2845 2844 2843 2842 2841 2840 2840 2839 2838 2838 2837 2837 2836 2836 2836 2836 2836 2836 2836 2836 2837 2838 2839 2840 2842 2843 2846 2847 2850 2852 2854 2856 2858 2861 2863 2866 2869 2871 2873 2875 2876 2879
2876 2875 2875 2875 2874 2873 2871 2871 2870 2870 2870 2869 2868 2866 2866 2866 2865 2863 2862 2861 2861 2859 2858 2857 2856 2856 2855 2854 2853 2853 2853 2852 2851 2850 2849 2847 2845 2845 2846 2845 2844 2842 2842 2842 2842 2841 2840 2839 2839 2838 2837 2836 2836 2835 2835 2834 2834 2833 2833 2833 2833 2833 2834 2834 2835 2835 2836 2837 2839 2840 2842 2844 2846 2848 2850 2852 2854 2857 2860 2863 2866 2869 2871 2871 2872 2874
2874 2873 2873 2872 2871 2871 2869 2868 2867 2867 2867 2866 2865 2864 2864 2863 2862 2861 2860 2859 2858 2857 2856 2855 2854 2853 2852 2852 2851 2851 2851 2850 2850 2848 2847 2845 2844 2844 2844 2843 2841 2840 2839 2839 2839 2839 2837 2837 2836 2836 2835 2834 2833 2833 2832 2831 2831 2831 2831 2831 2831 2831 2831 2832 2832 2833 2834 2835 2836 2837 2839 2840 2842 2844 2846 2849 2851 2854 2856 2860 2863 2866 2868 2870 2871 2871
2872 2871 2870 2870 2869 2868 2867 2866 2865 2865 2864 2863 2862 2862 2861 2861 2860 2859 2858 2857 2856 2855 2854 2853 2852 2851 2851 2850 2849 2849 2849 2848 2847 2846 2845 2843 2842 2841 2841 2841 2839 2837 2836 2836 2836 2836 2835 2834 2834 2833 2833 2832 2831 2831 2830 2829 2829 2829 2829 2829 2829 2829 2829 2830 2830 2831 2831 2832 2833 2834 2836 2837 2839 2841 2843 2845 2847 2850 2853 2856 2859 2862 2865 2867 2868 2869
2870 2868 2868 2867 2866 2866 2865 2864 2863 2862 2861 2861 2860 2859 2858 2858 2857 2856 2855 2855 2854 2853 2852 2851 2850 2849 2848 2848 2847 2846 2846 2846 2845 2844 2843 2841 2840 2839 2839 2839 2837 2835 2834 2833 2833 2833 2832 2831 2831 2831 2831 2830 2829 2828 2828 2827 2827 2826 2826 2826 2827 2827 2827 2827 2828 2828 2829 2829 2830 2831 2833 2834 2836 2837 2839 2842 2844 2847 2850 2853 2855 2858 2861 2863 2866 2867
2867 2866 2865 2864 2864 2863 2863 2862 2861 2860 2860 2860 2859 2858 2856 2856 2854 2853 2852 2851 2851 2851 2850 2848 2847 2846 2846 2845 2845 2844 2844 2843 2842 2841 2840 2839 2838 2836 2836 2836 2835 2833 2832 2831 2830 2830 2829 2829 2829 2829 2828 2828 2827 2826 2826 2825 2825 2825 2824 2824 2825 2825 2825 2825 2825 2826 2826 2827 2828 2829 2830 2831 2833 2834 2836 2838 2841 2844 2846 2850 2852 2854 2857 2860 2862 2865
2864 2863 2863 2862 2862 2861 2861 2860 2859 2858 2858 2857 2857 2857 2857 2856 2853 2851 2849 2849 2849 2849 2847 2846 2845 2844 2843 2843 2842 2841 2841 2840 2839 2839 2838 2837 2836 2834 2834 2834 2833 2831 2830 2828 2827 2827 2826 2826 2826 2826 2826 2826 2825 2825 2824 2824 2823 2823 2822 2822 2822 2823 2823 2823 2823 2823 2824 2824 2825 2826 2827 2828 2830 2831 2833 2836 2838 2841 2843 2846 2849 2852 2854 2857 2860 2861
2861 2861 2860 2860 2859 2858 2857 2857 2856 2856 2855 2855 2854 2855 2855 2855 2853 2850 2847 2847 2847 2846 2845 2843 2843 2842 2841 2840 2840 2839 2838 2838 2837 2837 2836 2835 2833 2832 2832 2831 2831 2829 2828 2826 2825 2824 2824 2824 2825 2825 2824 2824 2823 2823 2822 2822 2821 2821 2821 2821 2821 2821 2821 2821 2821 2821 2821 2822 2822 2823 2825 2826 2827 2829 2831 2832 2835 2838 2840 2843 2846 2849 2852 2855 2857 2859
2858 2857 2856 2856 2856 2855 2854 2854 2853 2853 2852 2852 2852 2851 2851 2851 2850 2848 2846 2846 2845 2844 2842 2841 2841 2840 2839 2838 2837 2836 2836 2836 2836 2835 2834 2833 2831 2830 2830 2829 2828 2827 2826 2825 2823 2822 2821 2822 2823 2823 2822 2822 2821 2821 2821 2821 2820 2820 2819 2819 2819 2819 2819 2819 2819 2819 2819 2819 2820 2821 2821 2823 2824 2826 2827 2829 2832 2835 2837 2841 2844 2847 2849 2852 2855 2856
2855 2854 2853 2852 2852 2851 2851 2851 2850 2850 2850 2850 2849 2849 2848 2847 2846 2845 2845 2844 2843 2842 2841 2840 2839 2838 2837 2837 2836 2834 2833 2834 2834 2833 2832 2831 2830 2829 2828 2827 2826 2826 2825 2824 2822 2820 2819 2819 2820 2821 2820 2820 2820 2820 2819 2819 2819 2818 2818 2818 2817 2817 2817 2817 2817 2817 2817 2817 2818 2818 2819 2820 2821 2822 2824 2826 2829 2831 2834 2838 2841 2844 2847 2850 2852 2853
2852 2851 2850 2849 2849 2848 2847 2847 2847 2847 2847 2846 2846 2846 2846 2845 2844 2843 2842 2841 2841 2840 2839 2838 2837 2836 2836 2835 2834 2833 2832 2832 2832 2831 2830 2829 2828 2827 2826 2826 2825 2824 2823 2822 2820 2819 2817 2817 2818 2818 2818 2818 2818 2818 2818 2818 2817 2817 2816 2816 2816 2816 2816 2816 2816 2816 2816 2816 2816 2816 2816 2817 2818 2820 2821 2823 2825 2828 2831 2835 2838 2841 2844 2847 2848 2850
2850 2849 2848 2847 2846 2846 2845 2844 2844 2844 2844 2843 2843 2843 2843 2842 2842 2841 2840 2840 2839 2838 2837 2836 2836 2835 2834 2833 2832 2831 2831 2831 2830 2829 2828 2827 2826 2825 2825 2824 2823 2822 2821 2820 2819 2817 2816 2816 2816 2816 2816 2816 2816 2816 2816 2816 2816 2816 2815 2815 2815 2815 2815 2814 2814 2814 2814 2814 2814 2815 2815 2815 2816 2817 2819 2820 2822 2825 2828 2831 2835 2838 2841 2843 2845 2846
2847 2846 2846 2845 2844 2843 2842 2842 2841 2841 2841 2841 2841 2841 2840 2840 2840 2839 2838 2837 2837 2836 2835 2834 2834 2833 2832 2831 2830 2829 2829 2829 2829 2827 2826 2825 2824 2824 2823 2822 2821 2821 2820 2818 2817 2816 2816 2815 2814 2814 2814 2814 2814 2815 2815 2815 2815 2814 2814 2814 2814 2813 2813 2813 2813 2813 2813 2813 2813 2814 2814 2814 2815 2816 2817 2818 2820 2822 2825 2828 2831 2835 2837 2840 2841 2843
2844 2843 2843 2842 2841 2841 2840 2839 2839 2838 2838 2838 2838 2838 2838 2838 2837 2837 2836 2836 2835 2834 2833 2832 2831 2831 2830 2829 2828 2827 2827 2827 2826 2826 2824 2823 2823 2822 2821 2821 2820 2819 2818 2817 2816 2815 2814 2813 2813 2813 2812 2812 2813 2813 2813 2813 2813 2813 2813 2813 2812 2812 2812 2812 2812 2812 2813 2813 2813 2813 2813 2813 2814 2815 2816 2817 2819 2821 2823 2826 2828 2831 2834 2836 2838 2839
2841 2840 2840 2840 2839 2838 2838 2837 2836 2836 2836 2836 2836 2835 2835 2835 2835 2834 2834 2833 2832 2831 2831 2830 2829 2828 2828 2827 2826 2826 2825 2825 2825 2824 2823 2822 2821 2820 2820 2819 2818 2817 2816 2815 2814 2814 2813 2812 2812 2811 2811 2811 2811 2811 2812 2811 2811 2811 2811 2811 2811 2811 2811 2811 2811 2812 2812 2812 2812 2813 2813 2813 2814 2814 2815 2816 2818 2820 2822 2824 2826 2828 2830 2832 2834 2836
2838 2837 2837 2837 2836 2836 2835 2835 2834 2834 2833 2833 2833 2833 2832 2832 2832 2831 2831 2831 2830 2829 2829 2828 2827 2826 2826 2825 2824 2824 2823 2823 2822 2822 2821 2820 2819 2819 2818 2817 2816 2816 2815 2814 2813 2812 2811 2811 2810 2810 2810 2809 2809 2810 2810 2810 2810 2810 2810 2810 2810 2810 2810 2810 2811 2811 2811 2811 2812 2812 2812 2813 2813 2814 2815 2816 2817 2819 2821 2823 2825 2827 2828 2830 2832 2833
2835 2834 2834 2834 2833 2833 2833 2832 2832 2831 2831 2831 2831 2830 2830 2830 2829 2829 2828 2828 2827 2827 2826 2826 2825 2824 2824 2823 2822 2821 2821 2821 2821 2820 2819 2818 2818 2817 2816 2816 2815 2814 2813 2813 2812 2811 2810 2809 2809 2808 2808 2808 2808 2808 2808 2808 2808 2808 2809 2809 2809 2809 2809 2809 2810 2810 2810 2811 2811 2811 2812 2812 2813 2814 2814 2815 2816 2818 2820 2821 2823 2825 2827 2829 2831 2832
2832 2831 2831 2831 2831 2831 2831 2830 2830 2829 2829 2828 2828 2828 2828 2827 2827 2827 2826 2826 2825 2825 2824 2824 2823 2822 2822 2821 2821 2820 2819 2819 2818 2818 2817 2816 2816 2815 2815 2814 2813 2813 2812 2811 2810 2809 2809 2808 2807 2807 2807 2806 2806 2807 2807 2807 2807 2807 2807 2807 2808 2808 2808 2808 2808 2809 2809 2810 2810 2811 2811 2812 2812 2813 2814 2815 2816 2817 2818 2820 2822 2824 2826 2828 2830 2832
2829 2829 2829 2829 2828 2828 2828 2827 2827 2827 2826 2826 2826 2826 2826 2825 2825 2825 2824 2824 2823 2823 2822 2821 2821 2820 2820 2819 2819 2818 2818 2817 2816 2816 2816 2815 2814 2813 2813 2812 2811 2811 2810 2810 2809 2808 2807 2807 2806 2806 2806 2805 2805 2805 2805 2805 2805 2805 2806 2806 2806 2807 2807 2807 2807 2807 2808 2808 2809 2809 2810 2811 2811 2812 2813 2814 2815 2816 2817 2819 2821 2823 2825 2826 2829 2831
2827 2826 2826 2826 2826 2826 2825 2825 2825 2825 2824 2824 2824 2824 2823 2823 2823 2822 2822 2821 2821 2821 2820 2820 2819 2818 2817 2817 2817 2816 2816 2815 2815 2814 2813 2813 2812 2812 2811 2810 2810 2809 2809 2808 2807 2806 2806 2806 2805 2804 2804 2804 2803 2803 2803 2803 2804 2804 2804 2804 2805 2805 2805 2806 2806 2806 2807 2807 2808 2808 2809 2810 2810 2811 2812 2813 2814 2815 2816 2818 2820 2821 2823 2825 2826 2829
2825 2824 2824 2823 2823 2823 2823 2823 2822 2822 2822 2822 2821 2821 2821 2821 2820 2820 2820 2819 2819 2818 2818 2817 2816 2816 2815 2815 2815 2814 2814 2813 2813 2812 2811 2811 2811 2810 2809 2809 2808 2807 2807 2806 2806 2805 2805 2804 2803 2803 2803 2802 2802 2802 2801 2802 2802 2802 2802 2802 2803 2803 2804 2804 2805 2805 2805 2806 2806 2807 2807 2808 2809 2810 2811 2812 2813 2814 2815 2817 2818 2820 2821 2823 2824 2826
2822 2822 2821 2821 2821 2821 2821 2820 2820 2820 2820 2820 2819 2819 2819 2818 2818 2818 2817 2817 2816 2816 2816 2815 2814 2814 2813 2813 2812 2812 2812 2812 2811 2811 2810 2809 2809 2808 2807 2807 2806 2806 2805 2804 2804 2803 2803 2802 2802 2801 2801 2801 2800 2800 2800 2800 2800 2800 2800 2801 2801 2801 2802 2802 2803 2803 2803 2804 2805 2805 2806 2806 2807 2808 2809 2810 2811 2812 2814 2815 2816 2818 2819 2821 2822 2824
2820 2819 2819 2819 2818 2818 2818 2818 2818 2817 2817 2817 2817 2816 2816 2816 2816 2815 2815 2814 2814 2814 2813 2813 2812 2811 2811 2811 2810 2810 2810 2810 2809 2809 2808 2807 2807 2806 2806 2805 2804 2804 2803 2803 2802 2801 2801 2801 2800 2800 2800 2799 2799 2798 2798 2798 2798 2798 2798 2798 2799 2799 2800 2801 2801 2801 2801 2802 2803 2803 2804 2805 2805 2806 2807 2808 2809 2811 2812 2813 2815 2816 2817 2819 2820 2822
2818 2817 2816 2816 2816 2816 2816 2816 2816 2815 2815 2815 2814 2814 2814 2814 2813 2813 2812 2812 2811 2811 2811 2810 2810 2809 2809 2808 2808 2808 2807 2807 2807 2807 2806 2806 2805 2804 2804 2803 2802 2802 2801 2801 2800 2800 2799 2799 2798 2798 2797 2797 2797 2796 2796 2796 2796 2796 2796 2796 2797 2797 2798 2798 2799 2799 2800 2800 2801 2801 2802 2803 2803 2804 2805 2806 2807 2808 2810 2811 2812 2814 2815 2816 2818 2820
2816 2815 2815 2814 2814 2814 2814 2813 2813 2813 2812 2812 2812 2811 2811 2811 2811 2810 2810 2809 2809 2809 2808 2808 2807 2807 2806 2806 2806 2806 2805 2805 2805 2804 2804 2804 2803 2802 2802 2801 2801 2800 2800 2799 2798 2798 2797 2797 2797 2796 2796 2795 2795 2795 2795 2795 2795 2795 2795 2795 2795 2795 2796 2796 2797 2797 2798 2799 2799 2799 2800 2801 2801 2802 2803 2804 2806 2806 2808 2809 2811 2812 2813 2815 2816 2817
2814 2813 2813 2812 2812 2811 2811 2811 2811 2811 2810 2810 2810 2809 2809 2808 2808 2807 2807 2807 2806 2806 2806 2806 2805 2805 2804 2804 2804 2803 2803 2802 2802 2802 2801 2801 2801 2801 2800 2799 2799 2798 2798 2797 2796 2796 2796 2795 2795 2795 2794 2794 2793 2793 2793 2793 2793 2793 2793 2793 2793 2793 2793 2794 2795 2796 2796 2797 2797 2797 2798 2799 2799 2801 2801 2802 2804 2805 2806 2807 2808 2810 2811 2812 2814 2815
2812 2812 2811 2811 2810 2810 2809 2809 2808 2808 2808 2807 2807 2806 2806 2806 2805 2805 2804 2804 2804 2804 2803 2803 2802 2802 2802 2802 2801 2801 2801 2800 2799 2799 2799 2799 2799 2798 2798 2797 2797 2796 2796 2795 2795 2794 2794 2794 2793 2793 2793 2792 2792 2791 2791 2791 2791 2791 2791 2791 2791 2791 2791 2792 2792 2793 2794 2795 2796 2796 2796 2797 2797 2798 2799 2800 2801 2802 2804 2805 2806 2807 2809 2810 2811 2813
2811 2810 2809 2809 2808 2807 2807 2806 2806 2806 2805 2805 2804 2804 2803 2803 2802 2802 2801 2801 2801 2801 2801 2800 2800 2800 2799 2799 2799 2799 2798 2797 2797 2797 2796 2796 2796 2796 2796 2795 2795 2794 2794 2793 2793 2792 2792 2791 2791 2791 2791 2791 2791 2790 2790 2790 2790 2790 2789 2789 2789 2790 2790 2790 2790 2791 2791 2792 2793 2794 2794 2795 2796 2796 2797 2798 2799 2800 2801 2803 2804 2805 2806 2808 2809 2811
2809 2808 2807 2807 2806 2806 2805 2804 2804 2803 2803 2802 2801 2801 2801 2800 2800 2799 2799 2799 2798 2798 2798 2798 2797 2797 2796 2796 2796 2796 2796 2795 2795 2794 2794 2793 2793 2793 2793 2793 2792 2792 2791 2791 2791 2790 2790 2789 2789 2789 2789 2789 2789 2789 2789 2788 2788 2788 2788 2788 2788 2788 2788 2788 2789 2789 2789 2790 2791 2791 2792 2793 2794 2794 2795 2796 2797 2798 2799 2800 2802 2803 2805 2806 2807 2809
2807 2806 2806 2805 2804 2803 2803 2802 2801 2801 2800 2800 2799 2798 2798 2797 2797 2797 2796 2796 2795 2795 2795 2795 2795 2794 2794 2793 2793 2793 2793 2792 2792 2791 2791 2791 2791 2790 2790 2790 2790 2790 2789 2789 2788 2788 2787 2787 2787 2787 2787 2788 2787 2787 2787 2787 2787 2787 2787 2787 2787 2787 2787 2787 2787 2787 2787 2788 2788 2789 2790 2791 2792 2792 2793 2794 2795 2796 2797 2798 2800 2801 2803 2804 2805 2807